Location: Nantong Television Tower
(32.0188°N, 120.8512°E)
Time: 12:59:23
(UTC+08:00)

Vanguard 3 - Visible Passes

Search period start: 24 January 2017 00:00
Search period end: 03 February 2017 00:00
Orbit: 508 x 3265 km, 33.3° (Epoch: 22 January)

Date Brightness Start Highest point End Pass type
(mag) Time Alt. Az. Time Alt. Az. Time Alt. Az.
24 Jan 7.7 18:21:46 10° WNW 18:29:54 67° SSW 18:34:06 14° ESE visible
24 Jan 9.8 20:38:30 10° WSW 20:38:43 10° WSW 20:38:43 10° WSW visible
25 Jan 8.4 19:21:48 10° W 19:27:44 31° SW 19:29:41 23° S visible
26 Jan 8.1 18:05:42 10° WNW 18:14:37 60° SSW 18:19:44 10° SE visible
26 Jan 9.7 20:24:26 10° SW 20:25:01 10° SW 20:25:19 10° SW visible
27 Jan 9.1 19:06:05 10° W 19:12:20 28° SW 19:16:22 11° SSE visible
28 Jan 8.6 17:49:32 10° WNW 17:59:14 54° SSW 18:04:45 10° SE visible
29 Jan 9.4 18:50:18 10° W 18:56:49 25° SW 19:01:13 10° SSE visible
31 Jan 9.7 18:34:28 10° W 18:41:12 22° SW 18:45:49 10° S visible
02 Feb 10.0 18:18:37 10° W 18:25:28 20° SW 18:30:17 10° S visible
